TELKOM 3S

Last updated on Thu Oct 03 2024 00:02:40 GMT+0000 (Coordinated Universal Time)

1 41944U 17007A 24276.19702095 -.00000363 00000+0 00000+0 0 9992 2 41944 0.0194 259.3949 0002582 307.7029 353.2495 1.00270750 27893
UTC large
Height (km)
Speed (km/s)
/
Latitude / Longitude
Inclination (degrees)
Orbital Period (minutes)
Azimuth
Elevation
Range (km)
Doppler Factor

Next 0 passes for location: London (51.5072 / 0.1276)

Sorry there are no passes over London.